Home > Weather > Kãnpur > Past weeks

Flag for India Past Weather in Kãnpur, Uttar Pradesh, India — Yesterday and Last 2 Weeks

Now
93 °F

Broken clouds.


Feels Like: 117 °F
Forecast: 82 / 93 °F
Wind: No wind

Location: Lucknow / Amausi

Current Time: Aug 30, 2016 at 10:39:07 AM

Latest Report: Aug 30, 2016 at 10:00 AM


Visibility: 2 mi

Pressure: 29.59 "Hg

Humidity: 71%

Dew Point: 82 °F

Location of KãnpurLocation

Past Weather in Kãnpur — Graph

°F

Kãnpur Temperature Yesterday

Maximum temperature yesterday: 97 °F (at 2:30 PM)
Minimum temperature yesterday: 84 °F (at 2:00 AM)
Average temperature yesterday: 89 °F

High & Low Weather Summary for the Past Weeks

 TemperatureHumidityPressure
High99 °F (Aug 25, 12:00 PM)100% (Aug 15, 8:30 AM)29.77 "Hg (Aug 15, 8:30 AM)
Low77 °F (Aug 17, 12:00 AM)56% (Aug 29, 2:30 PM)29.36 "Hg (Aug 16, 4:00 PM)
Average86 °F88%29.57 "Hg
* Reported Aug 15 8:30 AM — Aug 30 9:00 AM, Kãnpur, Weather by CustomWeather, © 2016

Note: Actual official high and low records may vary slightly from our data, if they occured in-between our weather recording intervals... More about our weather records

Advertising

Kãnpur Weather History for the Previous 24 Hours

Scroll right to see more
 ConditionsComfort  
Time TempWeatherWind HumidityBarometerVisibility
9:00 AM
Tue, Aug 30
91 °FBroken clouds.No wind75%29.59 "Hg2 mi
8:30 AM91 °FScattered clouds.No wind71%29.59 "Hg2 mi
8:00 AM88 °FScattered clouds.No wind79%29.56 "Hg2 mi
7:30 AM88 °FPartly sunny.No wind79%29.59 "Hg2 mi
7:00 AM86 °FPartly sunny.No wind84%29.56 "Hg2 mi
6:30 AM84 °FPartly sunny.No wind89%29.56 "Hg2 mi
6:00 AM84 °FPassing clouds.No wind89%29.56 "Hg2 mi
5:30 AM82 °FPassing clouds.No wind94%29.56 "Hg2 mi
5:00 AM82 °FPassing clouds.No wind94%29.56 "Hg2 mi
4:00 AM82 °FPassing clouds.No wind94%29.53 "Hg2 mi
3:00 AM82 °FPartly cloudy.No wind94%29.56 "Hg2 mi
2:00 AM84 °FPartly cloudy.No wind89%29.56 "Hg2 mi
1:00 AM84 °FPartly cloudy.No wind84%29.56 "Hg2 mi
12:00 AM84 °FThunderstorms. Partly cloudy.No wind84%29.59 "Hg2 mi
11:00 PM
Mon, Aug 29
86 °FThunderstorms. Partly cloudy.No wind79%29.62 "Hg2 mi
10:00 PM86 °FThunderstorms. Partly cloudy.No wind79%29.62 "Hg2 mi
2:30 PM97 °FBroken clouds.2 mph56%29.53 "Hg3 mi
2:00 PM95 °FBroken clouds.2 mph63%29.56 "Hg3 mi
1:30 PM95 °FBroken clouds.No wind63%29.59 "Hg3 mi
1:00 PM95 °FBroken clouds.No wind63%29.59 "Hg3 mi
12:30 PM95 °FBroken clouds.No wind63%29.62 "Hg3 mi
12:00 PM95 °FBroken clouds.No wind63%29.62 "Hg3 mi
11:30 AM95 °FBroken clouds.2 mph63%29.65 "Hg3 mi
10:30 AM95 °FScattered clouds.5 mph63%29.65 "Hg3 mi
10:00 AM93 °FScattered clouds.No wind67%29.65 "Hg3 mi
Weather by CustomWeather, © 2016

See weather overviewHow to use our weather pages